When you browse on this site, cookies collect data to enhance your experience and personalize the content and advertising you see.
Visit our Privacy Policy to learn more. By continuing to use the site, you agree to this use of cookies and data.
  • în România
  • Lista ţărilor
  • Pe 7 zile
  • Temperatura apei
  • Hartă satelitară
  • Meteo pe hartă
  • Widget-uri
  • user-avatar
    Intrare

    Meteo pe oră la Naumovo

    Astăzi, 24 Martie, Duminică

    Timp Temperatura Precipitaţii Vânt Presiune Umiditate
    00:00 +1°C° 0.7 mm 3 m/s 745 mmHg 78%
    01:00 0°C° 0.7 mm 4 m/s 744 mmHg 77%
    02:00 +1°C° 0 mm 3 m/s 743 mmHg 78%
    03:00 +1°C° 0.4 mm 3 m/s 742 mmHg 80%
    04:00 +1°C° 0.4 mm 3 m/s 742 mmHg 81%
    05:00 +1°C° 0.4 mm 3 m/s 741 mmHg 83%
    06:00 +2°C° 0 mm 3 m/s 741 mmHg 84%
    07:00 +1°C° 0 mm 4 m/s 741 mmHg 85%
    08:00 +1°C° 0 mm 4 m/s 741 mmHg 86%
    09:00 +3°C° 0 mm 4 m/s 741 mmHg 79%
    10:00 +3°C° 0 mm 5 m/s 741 mmHg 73%
    11:00 +5°C° 0 mm 5 m/s 741 mmHg 66%
    12:00 +5°C° 0.1 mm 5 m/s 741 mmHg 62%
    13:00 +6°C° 0.1 mm 5 m/s 740 mmHg 58%
    14:00 +6°C° 0.1 mm 5 m/s 740 mmHg 54%
    15:00 +5°C° 0 mm 5 m/s 740 mmHg 56%
    16:00 +5°C° 0 mm 4 m/s 741 mmHg 58%
    17:00 +4°C° 0 mm 3 m/s 741 mmHg 61%
    18:00 +3°C° 0 mm 3 m/s 741 mmHg 63%
    19:00 +2°C° 0 mm 3 m/s 741 mmHg 66%
    20:00 +1°C° 0 mm 3 m/s 741 mmHg 69%
    21:00 +1°C° 0 mm 2 m/s 741 mmHg 71%
    22:00 -1°C° 0 mm 2 m/s 741 mmHg 74%
    23:00 -1°C° 0 mm 2 m/s 741 mmHg 76%

    Mâine, 25 Martie, Luni

    Timp Temperatura Precipitaţii Vânt Presiune Umiditate
    00:00 -2°C° 0 mm 2 m/s 741 mmHg 77%
    01:00 -2°C° 0 mm 2 m/s 741 mmHg 78%
    02:00 -2°C° 0 mm 2 m/s 741 mmHg 79%
    03:00 -3°C° 0 mm 2 m/s 741 mmHg 79%
    04:00 -3°C° 0 mm 2 m/s 740 mmHg 78%
    05:00 -3°C° 0 mm 2 m/s 740 mmHg 77%
    06:00 -2°C° 0 mm 2 m/s 740 mmHg 72%
    07:00 -1°C° 0 mm 3 m/s 740 mmHg 68%
    08:00 0°C° 0 mm 3 m/s 740 mmHg 63%
    09:00 +2°C° 0 mm 3 m/s 740 mmHg 58%
    10:00 +3°C° 0 mm 4 m/s 739 mmHg 52%
    11:00 +5°C° 0 mm 4 m/s 739 mmHg 47%
    12:00 +5°C° 0 mm 4 m/s 739 mmHg 46%
    13:00 +6°C° 0 mm 4 m/s 739 mmHg 45%
    14:00 +7°C° 0 mm 3 m/s 738 mmHg 44%
    15:00 +5°C° 0 mm 3 m/s 738 mmHg 49%
    16:00 +6°C° 0 mm 2 m/s 738 mmHg 54%
    17:00 +5°C° 0 mm 2 m/s 738 mmHg 60%
    18:00 +3°C° 0 mm 2 m/s 737 mmHg 64%
    19:00 +2°C° 0 mm 2 m/s 737 mmHg 69%
    20:00 +1°C° 0 mm 2 m/s 737 mmHg 74%
    21:00 +1°C° 0 mm 2 m/s 737 mmHg 75%
    22:00 -1°C° 0 mm 2 m/s 737 mmHg 77%
    23:00 -1°C° 0 mm 2 m/s 737 mmHg 78%

    Poimâine, 26 Martie, Marţi

    Timp Temperatura Precipitaţii Vânt Presiune Umiditate
    00:00 -1°C° 0 mm 2 m/s 737 mmHg 79%
    01:00 -1°C° 0 mm 2 m/s 737 mmHg 81%
    02:00 -1°C° 0 mm 2 m/s 736 mmHg 83%
    03:00 -1°C° 0 mm 2 m/s 736 mmHg 86%
    04:00 -1°C° 0 mm 2 m/s 736 mmHg 88%
    05:00 -2°C° 0 mm 2 m/s 736 mmHg 91%
    06:00 -1°C° 0.6 mm 3 m/s 736 mmHg 89%
    07:00 -1°C° 0.6 mm 3 m/s 736 mmHg 88%
    08:00 -1°C° 0.6 mm 4 m/s 736 mmHg 86%
    09:00 -1°C° 0.1 mm 4 m/s 736 mmHg 80%
    10:00 -1°C° 0.1 mm 4 m/s 736 mmHg 73%
    11:00 -1°C° 0.1 mm 4 m/s 736 mmHg 67%
    12:00 -1°C° 0.2 mm 4 m/s 736 mmHg 64%
    13:00 0°C° 0.2 mm 4 m/s 737 mmHg 61%
    14:00 0°C° 0.2 mm 4 m/s 737 mmHg 58%
    15:00 +1°C° 0 mm 3 m/s 737 mmHg 58%
    16:00 +1°C° 0 mm 2 m/s 737 mmHg 58%
    17:00 +2°C° 0 mm 1 m/s 737 mmHg 58%
    18:00 +1°C° 0 mm 1 m/s 737 mmHg 63%
    19:00 -1°C° 0 mm 1 m/s 737 mmHg 67%
    20:00 -2°C° 0 mm 1 m/s 738 mmHg 71%
    21:00 -2°C° 0 mm 1 m/s 738 mmHg 72%
    22:00 -3°C° 0 mm 1 m/s 738 mmHg 72%
    23:00 -3°C° 0 mm 1 m/s 739 mmHg 72%

    27 Martie, Miercuri

    Timp Temperatura Precipitaţii Vânt Presiune Umiditate
    00:00 -3°C° 0 mm 1 m/s 739 mmHg 75%
    01:00 -5°C° 0 mm 2 m/s 740 mmHg 77%
    02:00 -5°C° 0 mm 3 m/s 741 mmHg 79%
    03:00 -6°C° 0 mm 3 m/s 741 mmHg 80%
    04:00 -6°C° 0 mm 3 m/s 741 mmHg 81%
    05:00 -7°C° 0 mm 4 m/s 742 mmHg 82%
    06:00 -5°C° 0 mm 4 m/s 742 mmHg 78%
    07:00 -5°C° 0 mm 5 m/s 743 mmHg 75%
    08:00 -5°C° 0 mm 5 m/s 743 mmHg 71%
    09:00 -4°C° 0.1 mm 5 m/s 744 mmHg 67%
    10:00 -2°C° 0.1 mm 5 m/s 745 mmHg 63%
    11:00 -2°C° 0.1 mm 5 m/s 745 mmHg 59%
    12:00 -1°C° 0 mm 5 m/s 746 mmHg 58%
    13:00 -1°C° 0 mm 5 m/s 746 mmHg 58%
    14:00 -1°C° 0 mm 5 m/s 747 mmHg 58%
    15:00 -1°C° 0 mm 5 m/s 747 mmHg 58%
    16:00 -1°C° 0 mm 5 m/s 748 mmHg 58%
    17:00 -1°C° 0 mm 4 m/s 748 mmHg 58%
    18:00 -1°C° 0 mm 3 m/s 749 mmHg 63%
    19:00 -2°C° 0 mm 3 m/s 749 mmHg 68%
    20:00 -3°C° 0 mm 2 m/s 750 mmHg 74%
    21:00 -3°C° 0 mm 2 m/s 750 mmHg 76%
    22:00 -4°C° 0 mm 2 m/s 750 mmHg 78%
    23:00 -4°C° 0 mm 2 m/s 751 mmHg 81%

    28 Martie, Joi

    Timp Temperatura Precipitaţii Vânt Presiune Umiditate
    00:00 -4°C° 0 mm 2 m/s 751 mmHg 81%
    01:00 -4°C° 0 mm 2 m/s 751 mmHg 81%
    02:00 -5°C° 0 mm 2 m/s 751 mmHg 81%
    03:00 -4°C° 0 mm 2 m/s 751 mmHg 79%
    04:00 -4°C° 0 mm 2 m/s 751 mmHg 78%
    05:00 -4°C° 0 mm 2 m/s 751 mmHg 76%
    06:00 -4°C° 0 mm 3 m/s 751 mmHg 71%
    07:00 -2°C° 0 mm 3 m/s 752 mmHg 65%
    08:00 -1°C° 0 mm 3 m/s 752 mmHg 59%
    09:00 -1°C° 0 mm 4 m/s 752 mmHg 55%
    10:00 +1°C° 0 mm 4 m/s 751 mmHg 50%
    11:00 +3°C° 0 mm 4 m/s 751 mmHg 46%
    12:00 +4°C° 0 mm 4 m/s 751 mmHg 46%
    13:00 +5°C° 0 mm 4 m/s 750 mmHg 46%
    14:00 +5°C° 0 mm 5 m/s 750 mmHg 47%
    15:00 +5°C° 0 mm 4 m/s 750 mmHg 54%
    16:00 +4°C° 0 mm 3 m/s 749 mmHg 61%
    17:00 +4°C° 0 mm 3 m/s 749 mmHg 67%
    18:00 +3°C° 0 mm 3 m/s 749 mmHg 74%
    19:00 +2°C° 0 mm 3 m/s 748 mmHg 80%
    20:00 0°C° 0 mm 4 m/s 748 mmHg 87%
    21:00 0°C° 0 mm 4 m/s 748 mmHg 87%
    22:00 0°C° 0 mm 4 m/s 747 mmHg 88%
    23:00 0°C° 0 mm 5 m/s 747 mmHg 88%

    29 Martie, Vineri

    Timp Temperatura Precipitaţii Vânt Presiune Umiditate
    00:00 0°C° 0 mm 5 m/s 746 mmHg 88%
    01:00 0°C° 0 mm 5 m/s 746 mmHg 88%
    02:00 +1°C° 0 mm 5 m/s 745 mmHg 88%
    03:00 +1°C° 0.1 mm 6 m/s 745 mmHg 87%
    04:00 +1°C° 0.1 mm 6 m/s 745 mmHg 86%
    05:00 +1°C° 0.1 mm 6 m/s 744 mmHg 84%
    06:00 +1°C° 0.1 mm 6 m/s 745 mmHg 79%
    07:00 -1°C° 0.1 mm 6 m/s 745 mmHg 73%
    08:00 -1°C° 0.1 mm 6 m/s 746 mmHg 67%
    09:00 +1°C° 0 mm 6 m/s 746 mmHg 65%
    10:00 +1°C° 0 mm 6 m/s 747 mmHg 63%
    11:00 +2°C° 0 mm 6 m/s 747 mmHg 61%
    12:00 +3°C° 0 mm 5 m/s 748 mmHg 61%
    13:00 +3°C° 0 mm 5 m/s 748 mmHg 60%
    14:00 +5°C° 0 mm 5 m/s 748 mmHg 59%
    15:00 +5°C° 0 mm 4 m/s 749 mmHg 61%
    16:00 +5°C° 0 mm 4 m/s 749 mmHg 63%
    17:00 +4°C° 0 mm 3 m/s 749 mmHg 64%
    18:00 +3°C° 0 mm 3 m/s 750 mmHg 71%
    19:00 +3°C° 0 mm 2 m/s 750 mmHg 77%
    20:00 +1°C° 0 mm 2 m/s 750 mmHg 83%
    21:00 +1°C° 0 mm 2 m/s 750 mmHg 85%
    22:00 +1°C° 0 mm 1 m/s 751 mmHg 86%
    23:00 +1°C° 0 mm 1 m/s 751 mmHg 88%
    Arată mai mult